Location: Asheville, NC
(35.6000°N, 82.5500°W)
Time: 15:33:01
(UTC-04:00)

AAUSAT CUBESAT 2 - Pass Details

Date: 16 March 2018
Orbit: 577 x 592 km, 97.5° (Epoch: 25 June)

Event Time Altitude Azimuth Distance (km) Brightness Sun altitude
Rises 20:27:43 0° 166° (SSE) 2,782 ? -10.8°
Reaches altitude 10° 20:29:51 10° 165° (SSE) 1,890 ? -11.2°
Maximum altitude 20:33:57 85° 77° (ENE) 590 ? -12.0°
Drops below altitude 10° 20:38:06 10° 350° (N) 1,913 ? -12.9°
Sets 20:40:17 0° 349° (N) 2,820 ? -13.3°
